Location: Isles
(48.9125°N, 2.8272°E)
Time: 14:55:01
(UTC+00:00)

Cosmos 2278 Rocket - Pass Details

Date: 03 February 2023
Orbit: 841 x 845 km, 71.0° (Epoch: 31 March)

Event Time Altitude Azimuth Distance (km) Brightness Sun altitude
Rises 18:10:35 0° 335° (NNW) 3,416 5.6 -13.6°
Reaches altitude 10° 18:13:48 10° 353° (N) 2,478 4.6 -14.1°
Maximum altitude 18:17:48 19° 38° (NE) 1,902 3.6 -14.8°
Enters shadow 18:18:57 18° 54° (NE) 1,953 3.6 -15.0°
